Location: Melbourne
(37.8170°S, 144.9670°E)
Time: 02:55:33
(UTC+10:00)

Vanguard 1 Rocket - Visible Passes

Search period start: 26 May 2016 00:00
Search period end: 05 June 2016 00:00
Orbit: 651 x 4225 km, 34.3° (Epoch: 23 May)

Date Brightness Start Highest point End Pass type
(mag) Time Alt. Az. Time Alt. Az. Time Alt. Az.
26 May 11.2 03:43:14 10° NNE 03:49:21 14° ENE 03:57:02 10° E visible
26 May 10.8 06:00:29 10° NNW 06:14:25 50° NE 06:37:21 10° ESE visible
27 May 10.8 04:51:03 10° NNW 05:02:17 34° NE 05:20:29 10° E visible
28 May 10.9 03:43:23 10° NNE 03:51:10 19° NE 04:02:07 10° E visible
28 May 10.6 06:02:59 10° NW 06:16:37 56° NNE 06:40:02 10° ESE visible
29 May 10.6 04:53:10 10° NNW 05:04:18 40° NE 05:23:27 10° ESE visible
30 May 10.6 03:44:38 10° N 03:53:04 24° NE 04:06:03 10° E visible
30 May 10.4 06:05:41 10° NW 06:18:59 63° NNE 06:42:40 10° E visible
31 May 10.9 02:40:47 10° NE 02:42:34 10° ENE 02:44:29 10° ENE visible
31 May 10.3 04:55:34 10° NNW 05:06:30 47° NE 05:26:14 10° ESE visible
01 Jun 10.2 03:48:53 18° N 03:55:06 30° NE 04:09:26 10° E visible
01 Jun 10.2 06:08:32 10° WNW 06:21:31 68° NNE 06:45:16 10° E visible
02 Jun 10.6 02:42:17 14° NE 02:44:33 15° ENE 02:51:16 10° E visible
02 Jun 10.0 04:59:38 16° NW 05:08:52 54° NNE 05:28:55 10° E visible
03 Jun 9.8 03:52:59 28° N 03:57:17 36° NE 04:12:29 10° E visible
03 Jun 10.1 06:11:31 10° WNW 06:24:11 73° NNE 06:47:52 10° E visible
04 Jun 10.4 02:46:16 20° NE 02:46:38 20° NE 02:55:34 10° E visible
04 Jun 9.8 05:03:36 23° NW 05:11:24 61° NNE 05:31:32 10° E visible
